Columbia County, Pennsylvania, United States
Lat: 41.04N, Lon: 76.43W
Wx Zone: PAZ053
Local Info
Past Weather Observations for Saturday, August 16, 2014

NOTE: This archive is for the closest National Weather Service station to Columbia County. Information may differ from the station used for current weather conditions.

Click here for Long-term Archive

Time Weather Temperature Dewpoint Humidity Pressure Winds Precip Visibility
23:53
Clear
Fog And Mist
61°F / 16°C 59°F / 15°C 94% 29.92 in
(1013 mb)
Calm - 6SM
22:53
Clear
61°F / 16°C 59°F / 15°C 94% 29.95 in
(1014 mb)
Calm - 7SM
21:53
Clear
61°F / 16°C 59°F / 15°C 94% 29.95 in
(1014 mb)
Calm - 7SM
20:53
Clear
63°F / 17°C 61°F / 16°C 94% 29.95 in
(1014 mb)
Calm - 7SM
19:53
Clear
63°F / 17°C 59°F / 15°C 88% 29.95 in
(1014 mb)
Calm 0.00 in
(0.00 mm)
7SM
18:53
Clear
64°F / 18°C 59°F / 15°C 83% 29.92 in
(1013 mb)
Calm - 7SM
17:53
Clear
73°F / 23°C 55°F / 13°C 53% 29.95 in
(1014 mb)
S 3.5 mph
(S 6 kph)
- 7SM
16:53
Clear
75°F / 24°C 52°F / 11°C 44% 29.95 in
(1014 mb)
SW 4.6 mph
(SW 7 kph)
- 8SM
15:53
Clear
77°F / 25°C 52°F / 11°C 42% 29.95 in
(1014 mb)
Variable 4.6 mph
(Variable 7 kph)
- 8SM
14:53
Clear
77°F / 25°C 52°F / 11°C 42% 29.98 in
(1015 mb)
Calm - 8SM
13:53
Clear
75°F / 24°C 55°F / 13°C 50% 29.98 in
(1015 mb)
Variable 3.5 mph
(Variable 6 kph)
- 8SM
12:53
Clear
73°F / 23°C 54°F / 12°C 50% 30.01 in
(1016 mb)
SSE 5.8 mph
(SSE 9 kph)
- 8SM
11:53
Clear
73°F / 23°C 54°F / 12°C 50% 30.01 in
(1016 mb)
Variable 4.6 mph
(Variable 7 kph)
- 7SM
10:53
Clear
72°F / 22°C 57°F / 14°C 61% 30.01 in
(1016 mb)
S 6.9 mph
(S 11 kph)
- 7SM
09:53
Clear
66°F / 19°C 55°F / 13°C 68% 30.04 in
(1017 mb)
Calm - 7SM
08:53
Clear
Hazy
63°F / 17°C 55°F / 13°C 77% 30.04 in
(1017 mb)
SW 4.6 mph
(SW 7 kph)
- 6SM
08:12
Clear
Fog And Mist
57°F / 14°C 55°F / 13°C 94% 30.04 in
(1017 mb)
SSE 3.5 mph
(SSE 6 kph)
- 4SM
07:53
Partly Cloudy
Fog And Mist
54°F / 12°C 54°F / 12°C 100% 30.04 in
(1017 mb)
Calm - 2 1/2SM
07:44
Partly Cloudy
Fog And Mist
54°F / 12°C 54°F / 12°C 100% 30.04 in
(1017 mb)
Calm - 2SM
07:35
Mostly Cloudy
Fog And Mist
54°F / 12°C 52°F / 11°C 94% 30.04 in
(1017 mb)
Calm - 2 1/2SM
07:23
Mostly Cloudy
Fog And Mist
54°F / 12°C 52°F / 11°C 94% 30.04 in
(1017 mb)
SSE 3.5 mph
(SSE 6 kph)
- 1 1/4SM
06:53
Obscured
Fog
52°F / 11°C 52°F / 11°C 100% 30.06 in
(1018 mb)
Calm - 1/4SM
06:41
Mostly Cloudy
Fog And Mist
52°F / 11°C 52°F / 11°C 100% 30.04 in
(1017 mb)
Calm - 3/4SM
06:38
Mostly Cloudy
Fog And Mist
52°F / 11°C 50°F / 10°C 94% 30.04 in
(1017 mb)
Calm - 2 1/2SM
06:28
Partly Cloudy
Fog And Mist
52°F / 11°C 48°F / 9°C 88% 30.04 in
(1017 mb)
Calm - 3SM
06:00
Mostly Cloudy
Fog And Mist
48°F / 9°C 46°F / 8°C 94% 30.04 in
(1017 mb)
Calm - 2 1/2SM
05:53
Partly Cloudy
Fog And Mist
48°F / 9°C 46°F / 8°C 94% 30.04 in
(1017 mb)
Calm - 2SM
05:00
Partly Cloudy
Fog And Mist
46°F / 8°C 45°F / 7°C 93% 30.04 in
(1017 mb)
Calm - 2 1/2SM
04:53
Clear
Fog And Mist
46°F / 8°C 45°F / 7°C 93% 30.04 in
(1017 mb)
Calm - 4SM
03:53
Clear
Fog And Mist
48°F / 9°C 46°F / 8°C 94% 30.01 in
(1016 mb)
Calm - 3SM
03:14
Partly Cloudy
Fog And Mist
48°F / 9°C 46°F / 8°C 94% 30.01 in
(1016 mb)
Calm - 4SM
02:53
Clear
Fog And Mist
48°F / 9°C 46°F / 8°C 94% 30.01 in
(1016 mb)
Calm - 4SM
01:53
Clear
Fog And Mist
48°F / 9°C 46°F / 8°C 94% 30.01 in
(1016 mb)
Calm - 4SM
00:53
Clear
Fog And Mist
50°F / 10°C 48°F / 9°C 94% 30.01 in
(1016 mb)
Calm - 4SM
Time Weather Temperature Dewpoint Humidity Pressure Winds Precip Visibility


Weather for websites

WeatherForYou.com, LLC is not responsible for any damages or problems caused by this service. Current weather conditions are obtained from the closest station including government and personal stations which may have varying degrees of accuracy. Weather forecasts are derived from the NOAA NDFD. Like all things, this site belongs to Jesus Christ... He just trusts me to maintain it. If you have any questions or comments email webmaster@weatherforyou.com

Copyright © 2014, WeatherForYou.com LLC. All rights reserved.